Location: site
(53.0000°N, 23.0500°E)
Time: 18:57:32
(UTC+01:00)

SAOCOM 1-A - Pass Details

Date: 11 December 2020
Orbit: 621 x 623 km, 97.9° (Epoch: 24 January)

Event Time Altitude Azimuth Distance (km) Brightness Sun altitude
Rises 04:59:48 0° 175° (S) 2,894 ? -21.3°
Reaches altitude 10° 05:02:01 10° 180° (S) 1,993 ? -21.0°
Maximum altitude 05:06:17 56° 259° (W) 745 ? -20.4°
Enters shadow 05:06:54 51° 294° (WNW) 793 ? -20.3°
